Date String (YYYY-MM-DD hh:mm:ss) UTC,Instrument flags,Ambient pressure (hPa),Sample flow (lpm),Bypass flow (lpm),Sample temperature (°C),Ambient temperature (°C),ASC tube jacket temperature (°C),LED temperature (°C),Box temperature (°C),Sample RH (%),Span deviation,Mass concentration (μg/m³),Mass concentration (μg/m³),Mass concentration (μg/m³)
DateTimeUTC,F1_M11,P_M11,Q1_M11,Q2_M11,T1_M11,T2_M11,T3_M11,T4_M11,T5_M11,U1_M11,ZSPAN_M11,X2_M11,X0_M11,X1_M11
2021-08-22 08:00:00,,0823.7,5.01,0.00,28.7,28.0,00.0,38.1,30.4,28.0,0002.1,0008.89,0012.92,0008.38
2021-08-22 08:01:00,,0823.7,5.00,0.00,28.7,28.1,00.0,38.0,30.5,27.9,0002.0,0008.89,0012.89,0008.38
2021-08-22 08:02:00,,0823.6,5.00,0.00,28.7,28.1,00.0,38.0,30.5,27.9,0002.0,0008.91,0012.91,0008.37
2021-08-22 08:03:00,,0823.7,4.99,0.00,28.7,28.1,00.0,38.0,30.5,28.4,0002.1,0008.91,0012.91,0008.38
2021-08-22 08:04:00,,0823.6,5.00,0.00,28.7,28.1,00.0,38.0,30.5,28.4,0002.2,0008.89,0012.91,0008.39
2021-08-22 08:05:00,,0823.7,5.01,0.00,28.7,28.1,00.0,38.0,30.4,27.9,0002.2,0008.89,0013.14,0008.38
2021-08-22 08:06:00,,0823.6,5.01,0.00,28.7,28.1,00.0,38.0,30.5,28.6,0002.1,0008.92,0013.28,0008.40
2021-08-22 08:07:00,,0823.5,4.99,0.00,28.7,28.0,00.0,38.0,30.4,28.8,0001.8,0008.92,0013.24,0008.40
2021-08-22 08:08:00,,0823.5,5.00,0.00,28.7,28.0,00.0,38.0,30.4,28.7,0001.7,0008.89,0012.85,0008.39
2021-08-22 08:09:00,,0823.4,5.00,0.00,28.7,28.0,00.0,38.0,30.4,28.8,0001.7,0008.83,0012.80,0008.35
2021-08-22 08:10:00,,0823.4,5.00,0.00,28.7,28.0,00.0,37.9,30.4,28.5,0001.6,0008.77,0012.75,0008.29
2021-08-22 08:11:00,,0823.4,5.00,0.00,28.6,28.0,00.0,37.9,30.4,28.0,0001.6,0008.76,0012.86,0008.27
2021-08-22 08:12:00,,0823.4,5.00,0.00,28.6,28.0,00.0,37.9,30.3,28.0,0001.7,0008.76,0013.37,0008.25
2021-08-22 08:13:00,,0823.5,5.01,0.00,28.6,28.0,00.0,37.9,30.3,28.3,0001.9,0008.76,0013.40,0008.25
2021-08-22 08:14:00,,0823.5,4.99,0.00,28.6,28.0,00.0,37.9,30.3,28.2,0002.0,0008.76,0013.48,0008.23
2021-08-22 08:15:00,,0823.6,5.00,0.00,28.6,27.9,00.0,37.9,30.3,28.3,0001.9,0008.74,0013.85,0008.21
2021-08-22 08:16:00,,0823.6,5.01,0.00,28.6,27.9,00.0,37.8,30.3,28.5,0001.9,0008.74,0013.89,0008.19
2021-08-22 08:17:00,,0823.6,4.99,0.00,28.5,27.9,00.0,37.8,30.3,28.8,0001.8,0008.76,0014.23,0008.20
2021-08-22 08:18:00,,0823.6,5.00,0.00,28.5,27.9,00.0,37.8,30.3,28.8,0001.9,0008.76,0014.29,0008.19
2021-08-22 08:19:00,,0823.6,5.00,0.00,28.5,27.9,00.0,37.8,30.3,28.4,0002.0,0008.75,0014.50,0008.19
2021-08-22 08:20:00,,0823.5,5.00,0.00,28.5,27.9,00.0,37.8,30.2,28.3,0002.1,0008.77,0014.55,0008.20
2021-08-22 08:21:00,,0823.4,5.00,0.00,28.5,27.9,00.0,37.8,30.3,28.2,0002.2,0008.80,0014.77,0008.23
2021-08-22 08:22:00,,0823.4,5.00,0.00,28.5,27.9,00.0,37.8,30.3,28.3,0002.2,0008.83,0015.14,0008.25
2021-08-22 08:23:00,,0823.4,5.00,0.00,28.5,28.0,00.0,37.8,30.3,28.1,0002.2,0008.86,0014.65,0008.26
2021-08-22 08:24:00,,0823.4,5.00,0.00,28.6,28.0,00.0,37.8,30.3,28.1,0002.0,0008.85,0015.14,0008.27
2021-08-22 08:25:00,,0823.4,5.00,0.00,28.6,28.1,00.0,37.8,30.4,27.8,0001.6,0008.80,0015.23,0008.25
2021-08-22 08:26:00,,0823.4,4.99,0.00,28.6,28.1,00.0,37.8,30.4,27.8,0001.5,0008.82,0015.08,0008.28
2021-08-22 08:27:00,,0823.4,5.01,0.00,28.6,28.1,00.0,37.8,30.4,27.6,0001.6,0008.84,0014.97,0008.29
2021-08-22 08:28:00,,0823.4,5.01,0.00,28.6,28.1,00.0,37.8,30.4,27.6,0001.9,0008.84,0014.82,0008.30
2021-08-22 08:29:00,,0823.4,4.99,0.00,28.7,28.2,00.0,37.8,30.5,27.7,0002.0,0008.83,0014.78,0008.30
2021-08-22 08:30:00,,0823.4,5.00,0.00,28.7,28.2,00.0,37.8,30.5,27.7,0002.0,0008.83,0014.54,0008.28
2021-08-22 08:31:00,,0823.5,5.00,0.00,28.7,28.2,00.0,37.8,30.5,27.7,0001.9,0008.87,0014.45,0008.29
2021-08-22 08:32:00,,0823.5,5.01,0.00,28.7,28.2,00.0,37.8,30.5,27.6,0001.7,0008.86,0014.11,0008.29
2021-08-22 08:33:00,,0823.6,4.99,0.00,28.7,28.2,00.0,37.8,30.5,27.6,0001.8,0008.83,0013.75,0008.28
2021-08-22 08:34:00,,0823.6,4.99,0.00,28.7,28.3,00.0,37.8,30.6,27.5,0001.9,0008.81,0013.88,0008.29
2021-08-22 08:35:00,,0823.6,5.00,0.00,28.8,28.3,00.0,37.9,30.6,27.5,0001.9,0008.84,0013.44,0008.29
2021-08-22 08:36:00,,0823.6,5.01,0.00,28.8,28.3,00.0,37.9,30.6,27.6,0002.0,0008.87,0013.26,0008.31
2021-08-22 08:37:00,,0823.6,4.98,0.00,28.8,28.3,00.0,37.9,30.6,27.6,0002.0,0008.89,0013.17,0008.31
2021-08-22 08:38:00,,0823.6,5.01,0.00,28.8,28.3,00.0,37.9,30.6,27.6,0002.0,0008.90,0013.14,0008.32
2021-08-22 08:39:00,,0823.6,5.01,0.00,28.8,28.3,00.0,37.9,30.6,27.6,0001.4,0008.87,0012.99,0008.32
2021-08-22 08:40:00,,0823.6,5.00,0.00,28.8,28.3,00.0,37.9,30.6,27.5,0001.5,0008.84,0012.96,0008.33
2021-08-22 08:41:00,,0823.6,5.00,0.00,28.8,28.3,00.0,37.9,30.6,27.5,0001.3,0008.83,0012.98,0008.35
2021-08-22 08:42:00,,0823.6,5.00,0.00,28.9,28.4,00.0,37.9,30.7,27.5,0001.4,0008.81,0013.65,0008.34
2021-08-22 08:43:00,,0823.6,5.00,0.00,28.9,28.4,00.0,38.0,30.7,27.6,0001.7,0008.79,0013.65,0008.33
2021-08-22 08:44:00,,0823.5,5.00,0.00,28.9,28.4,00.0,38.0,30.7,27.6,0001.7,0008.83,0013.76,0008.34
2021-08-22 08:45:00,,0823.6,5.00,0.00,28.9,28.4,00.0,38.0,30.7,27.6,0001.7,0008.84,0013.40,0008.35
2021-08-22 08:46:00,,0823.6,4.99,0.00,28.9,28.4,00.0,38.0,30.7,27.5,0001.7,0008.79,0013.25,0008.33
2021-08-22 08:47:00,,0823.6,5.01,0.00,28.9,28.4,00.0,38.0,30.7,27.4,0001.9,0008.78,0013.80,0008.33
2021-08-22 08:48:00,,0823.6,5.00,0.00,28.9,28.4,00.0,38.0,30.7,27.4,0002.0,0008.75,0013.81,0008.32
2021-08-22 08:49:00,,0823.6,4.99,0.00,28.9,28.4,00.0,38.0,30.7,27.3,0002.2,0008.77,0013.82,0008.36
2021-08-22 08:50:00,,0823.6,5.00,0.00,28.9,28.4,00.0,38.0,30.7,27.4,0002.5,0008.78,0013.66,0008.37
2021-08-22 08:51:00,,0823.5,5.00,0.00,28.9,28.4,00.0,38.0,30.7,27.4,0002.4,0008.83,0013.59,0008.38
2021-08-22 08:52:00,,0823.5,5.00,0.00,28.9,28.4,00.0,38.0,30.7,27.2,0002.3,0008.90,0013.67,0008.40
2021-08-22 08:53:00,,0823.4,4.99,0.00,28.9,28.4,00.0,38.0,30.7,27.2,0002.3,0008.96,0013.07,0008.43
2021-08-22 08:54:00,,0823.4,5.01,0.00,29.0,28.4,00.0,38.0,30.7,27.2,0002.2,0008.99,0013.23,0008.45
2021-08-22 08:55:00,,0823.4,5.00,0.00,29.0,28.4,00.0,38.1,30.8,27.0,0002.1,0008.98,0013.23,0008.45
2021-08-22 08:56:00,,0823.4,5.00,0.00,29.0,28.4,00.0,38.1,30.8,26.9,0001.9,0008.98,0013.22,0008.46
2021-08-22 08:57:00,,0823.4,4.99,0.00,29.0,28.4,00.0,38.1,30.8,26.9,0002.0,0008.98,0013.23,0008.46
2021-08-22 08:58:00,,0823.5,4.99,0.00,29.0,28.4,00.0,38.1,30.8,26.9,0001.7,0009.03,0013.13,0008.48
2021-08-22 08:59:00,,0823.5,5.01,0.00,29.0,28.4,00.0,38.1,30.8,26.9,0001.6,0009.05,0013.24,0008.48
